| time (UTC) | temp F | wind direction | speed knots | gust knots | rain 1hr in | rain 24hr in | rain mn in | humidity % | barometer mb |
| 20260905094015 | 52 | 102 | 0.0 | 0.0 | 0.00 | 0.00 | 0.00 | 88 | 1016.8 |
| 20260905093516 | 52 | 102 | 0.0 | 0.0 | 0.00 | 0.00 | 0.00 | 88 | 1016.9 |
| 20260905093033 | 52 | 102 | 0.0 | 0.0 | 0.00 | 0.00 | 0.00 | 88 | 1016.9 |
| 20260905092516 | 52 | 102 | 0.0 | 0.0 | 0.00 | 0.00 | 0.00 | 88 | 1016.9 |
| 20260905092022 | 52 | 102 | 0.0 | 0.0 | 0.00 | 0.00 | 0.00 | 88 | 1016.9 |
| 20260905091535 | 52 | 103 | 0.0 | 0.0 | 0.00 | 0.00 | 0.00 | 88 | 1016.9 |
| 20260905091011 | 52 | 102 | 0.0 | 0.0 | 0.00 | 0.00 | 0.00 | 88 | 1016.8 |
| 20260905090510 | 52 | 102 | 0.0 | 0.0 | 0.00 | 0.00 | 0.00 | 88 | 1016.8 |
| 20260905090014 | 52 | 102 | 0.0 | 0.0 | 0.00 | 0.00 | 0.00 | 88 | 1016.8 |
| 20260905085503 | 52 | 103 | 0.0 | 0.0 | 0.00 | 0.00 | 0.00 | 88 | 1016.8 |
| 20260905085002 | 52 | 102 | 0.0 | 0.0 | 0.00 | 0.00 | 0.00 | 88 | 1016.8 |
| 20260905084503 | 52 | 102 | 0.0 | 0.0 | 0.00 | 0.00 | 0.00 | 87 | 1016.8 |
| 20260905084005 | 53 | 102 | 0.0 | 0.0 | 0.00 | 0.00 | 0.00 | 88 | 1016.7 |
| 20260905083505 | 53 | 103 | 0.0 | 0.0 | 0.00 | 0.00 | 0.00 | 87 | 1016.7 |
| 20260905083004 | 53 | 103 | 0.0 | 0.0 | 0.00 | 0.00 | 0.00 | 87 | 1016.7 |
| 20260905082506 | 53 | 102 | 0.0 | 0.0 | 0.00 | 0.00 | 0.00 | 87 | 1016.6 |
| 20260905082007 | 53 | 103 | 0.0 | 0.9 | 0.00 | 0.00 | 0.00 | 87 | 1016.5 |
| 20260905081512 | 53 | 102 | 0.0 | 1.7 | 0.00 | 0.00 | 0.00 | 86 | 1016.5 |
| 20260905081010 | 53 | 113 | 0.0 | 1.7 | 0.00 | 0.00 | 0.00 | 86 | 1016.6 |
| 20260905080510 | 53 | 113 | 0.0 | 0.9 | 0.00 | 0.00 | 0.00 | 87 | 1016.6 |
| 20260905080021 | 53 | 98 | 0.0 | 0.0 | 0.00 | 0.00 | 0.00 | 87 | 1016.6 |
| 20260905075510 | 53 | 98 | 0.0 | 0.0 | 0.00 | 0.00 | 0.00 | 86 | 1016.6 |
| 20260905075008 | 53 | 98 | 0.0 | 0.0 | 0.00 | 0.00 | 0.00 | 86 | 1016.6 |
| 20260905074517 | 53 | 98 | 0.0 | 0.9 | 0.00 | 0.00 | 0.00 | 86 | 1016.6 |
| 20260905074005 | 53 | 98 | 0.0 | 0.9 | 0.00 | 0.01 | 0.00 | 86 | 1016.6 |
| 20260905073501 | 53 | 98 | 0.0 | 0.0 | 0.00 | 0.01 | 0.00 | 86 | 1016.6 |
| 20260905073004 | 54 | 98 | 0.0 | 0.0 | 0.00 | 0.01 | 0.00 | 85 | 1016.5 |
| 20260905072508 | 54 | 98 | 0.0 | 0.0 | 0.00 | 0.01 | 0.00 | 85 | 1016.5 |
| 20260905072004 | 54 | 98 | 0.0 | 0.0 | 0.00 | 0.01 | 0.00 | 85 | 1016.5 |
| 20260905071511 | 54 | 98 | 0.0 | 0.0 | 0.00 | 0.01 | 0.00 | 85 | 1016.5 |
| 20260905071007 | 54 | 98 | 0.0 | 0.0 | 0.00 | 0.01 | 0.00 | 85 | 1016.3 |
| 20260905070508 | 54 | 98 | 0.0 | 0.0 | 0.00 | 0.01 | 0.00 | 84 | 1016.3 |
| 20260905070017 | 54 | 98 | 0.0 | 0.0 | 0.00 | 0.01 | 0.00 | 84 | 1016.3 |
| 20260905065510 | 54 | 98 | 0.0 | 0.0 | 0.00 | 0.02 | 0.01 | 84 | 1016.3 |
| 20260905065015 | 55 | 98 | 0.0 | 0.0 | 0.00 | 0.02 | 0.01 | 83 | 1016.2 |
| 20260905064520 | 55 | 98 | 0.0 | 0.0 | 0.00 | 0.02 | 0.01 | 83 | 1016.2 |
| 20260905064010 | 55 | 98 | 0.0 | 0.0 | 0.00 | 0.02 | 0.01 | 83 | 1016.2 |
| 20260905063509 | 55 | 98 | 0.0 | 0.0 | 0.00 | 0.02 | 0.01 | 83 | 1016.2 |
| 20260905063020 | 55 | 98 | 0.0 | 0.0 | 0.00 | 0.02 | 0.01 | 82 | 1016.1 |
| 20260905062514 | 56 | 98 | 0.0 | 0.0 | 0.00 | 0.02 | 0.01 | 81 | 1016.0 |
| 20260905062004 | 56 | 98 | 0.0 | 0.0 | 0.00 | 0.02 | 0.01 | 80 | 1016.0 |
| 20260905061508 | 57 | 98 | 0.0 | 1.7 | 0.00 | 0.02 | 0.01 | 79 | 1015.9 |
| 20260905061004 | 57 | 98 | 0.0 | 1.7 | 0.00 | 0.02 | 0.01 | 79 | 1015.9 |
| 20260905060508 | 57 | 98 | 0.0 | 1.7 | 0.00 | 0.02 | 0.01 | 79 | 1015.9 |
| 20260905060016 | 57 | 98 | 0.0 | 2.6 | 0.00 | 0.02 | 0.01 | 78 | 1015.9 |
| 20260905055510 | 58 | 100 | 0.0 | 2.6 | 0.00 | 0.02 | 0.01 | 78 | 1015.9 |
| 20260905055010 | 57 | 74 | 0.0 | 2.6 | 0.00 | 0.02 | 0.01 | 78 | 1015.8 |
| 20260905054519 | 57 | 96 | 0.0 | 0.0 | 0.00 | 0.02 | 0.01 | 79 | 1015.7 |
| 20260905054010 | 58 | 96 | 0.0 | 0.0 | 0.00 | 0.02 | 0.01 | 78 | 1015.7 |
| 20260905053513 | 58 | 96 | 0.0 | 0.0 | 0.00 | 0.02 | 0.01 | 78 | 1015.7 |
| 20260905053033 | 58 | 96 | 0.0 | 0.0 | 0.00 | 0.02 | 0.01 | 78 | 1015.8 |
| 20260905052513 | 58 | 96 | 0.0 | 0.0 | 0.00 | 0.02 | 0.01 | 77 | 1015.8 |
| 20260905052014 | 58 | 96 | 0.0 | 0.0 | 0.00 | 0.02 | 0.01 | 77 | 1015.8 |
| 20260905051523 | 58 | 96 | 0.0 | 0.0 | 0.00 | 0.02 | 0.01 | 77 | 1015.9 |
| 20260905051011 | 58 | 96 | 0.0 | 0.0 | 0.00 | 0.02 | 0.01 | 77 | 1015.9 |
| 20260905050507 | 58 | 96 | 0.0 | 0.0 | 0.00 | 0.02 | 0.01 | 76 | 1015.9 |
| 20260905050013 | 58 | 96 | 0.0 | 0.0 | 0.00 | 0.02 | 0.01 | 76 | 1015.8 |
| 20260905045508 | 58 | 96 | 0.0 | 0.0 | 0.00 | 0.02 | 0.01 | 76 | 1015.8 |
| 20260905045009 | 58 | 96 | 0.0 | 0.0 | 0.00 | 0.02 | 0.01 | 76 | 1015.8 |
| 20260905044520 | 58 | 96 | 0.0 | 0.0 | 0.00 | 0.02 | 0.01 | 76 | 1015.9 |
| 20260905044011 | 58 | 96 | 0.0 | 0.0 | 0.00 | 0.02 | 0.01 | 76 | 1015.9 |
| 20260905043516 | 59 | 96 | 0.0 | 0.0 | 0.00 | 0.02 | 0.01 | 75 | 1015.9 |
| 20260905043026 | 59 | 96 | 0.0 | 0.0 | 0.00 | 0.02 | 0.01 | 75 | 1015.9 |
| 20260905042513 | 59 | 96 | 0.0 | 0.0 | 0.00 | 0.02 | 0.01 | 74 | 1015.9 |
| 20260905042014 | 59 | 96 | 0.0 | 0.0 | 0.00 | 0.02 | 0.01 | 74 | 1015.9 |
| 20260905041525 | 60 | 96 | 0.0 | 0.0 | 0.00 | 0.02 | 0.01 | 73 | 1015.8 |
| 20260905041015 | 59 | 96 | 0.0 | 0.0 | 0.00 | 0.02 | 0.01 | 73 | 1015.8 |
| 20260905040514 | 59 | 96 | 0.0 | 0.0 | 0.00 | 0.02 | 0.01 | 73 | 1015.8 |
| 20260905040028 | 60 | 96 | 0.0 | 0.0 | 0.00 | 0.02 | 0.01 | 72 | 1015.8 |
| 20260905035515 | 60 | 96 | 0.0 | 0.0 | 0.00 | 0.02 | 0.01 | 71 | 1015.8 |
| 20260905035007 | 60 | 96 | 0.0 | 0.0 | 0.00 | 0.02 | 0.01 | 71 | 1015.8 |
| 20260905034514 | 60 | 96 | 0.0 | 0.0 | 0.00 | 0.02 | 0.01 | 70 | 1015.8 |
| 20260905034013 | 60 | 100 | 0.0 | 0.0 | 0.00 | 0.02 | 0.01 | 70 | 1015.7 |
| 20260905033508 | 60 | 100 | 0.0 | 0.0 | 0.00 | 0.02 | 0.01 | 70 | 1015.7 |
| 20260905033030 | 60 | 100 | 0.0 | 0.0 | 0.00 | 0.02 | 0.01 | 69 | 1015.7 |
| 20260905032512 | 61 | 99 | 0.0 | 0.0 | 0.00 | 0.02 | 0.01 | 69 | 1015.6 |
| 20260905032013 | 61 | 100 | 0.0 | 0.0 | 0.00 | 0.02 | 0.01 | 68 | 1015.6 |
| 20260905031526 | 61 | 105 | 0.0 | 0.0 | 0.00 | 0.02 | 0.01 | 68 | 1015.6 |
| 20260905031016 | 61 | 117 | 0.0 | 0.0 | 0.00 | 0.02 | 0.01 | 68 | 1015.5 |
| 20260905030514 | 61 | 117 | 0.0 | 0.0 | 0.00 | 0.02 | 0.01 | 67 | 1015.5 |
| 20260905030030 | 61 | 117 | 0.0 | 0.0 | 0.00 | 0.02 | 0.01 | 67 | 1015.4 |
| 20260905025513 | 62 | 117 | 0.0 | 0.0 | 0.00 | 0.02 | 0.01 | 66 | 1015.4 |
| 20260905025013 | 62 | 117 | 0.0 | 0.0 | 0.00 | 0.02 | 0.01 | 64 | 1015.4 |
| 20260905024528 | 62 | 117 | 0.0 | 0.0 | 0.00 | 0.02 | 0.01 | 64 | 1015.3 |
| 20260905024020 | 62 | 123 | 0.0 | 0.0 | 0.00 | 0.02 | 0.01 | 64 | 1015.3 |
| 20260905023508 | 62 | 123 | 0.0 | 0.0 | 0.00 | 0.02 | 0.01 | 63 | 1015.3 |
| 20260905023037 | 62 | 121 | 0.0 | 0.0 | 0.00 | 0.02 | 0.01 | 62 | 1015.3 |
| 20260905022512 | 63 | 117 | 0.0 | 0.0 | 0.00 | 0.02 | 0.01 | 63 | 1015.4 |
| 20260905022012 | 63 | 117 | 0.0 | 1.7 | 0.00 | 0.02 | 0.01 | 62 | 1015.4 |
| 20260905021526 | 63 | 129 | 0.0 | 1.7 | 0.00 | 0.02 | 0.01 | 62 | 1015.4 |
| 20260905021011 | 63 | 223 | 0.0 | 2.6 | 0.00 | 0.03 | 0.01 | 62 | 1015.4 |
| 20260905020518 | 63 | 220 | 0.9 | 2.6 | 0.00 | 0.03 | 0.01 | 60 | 1015.4 |
| 20260905020033 | 63 | 104 | 0.9 | 3.5 | 0.00 | 0.03 | 0.01 | 60 | 1015.3 |
| 20260905015515 | 64 | 123 | 1.7 | 5.2 | 0.00 | 0.03 | 0.01 | 60 | 1015.4 |
| 20260905015019 | 64 | 136 | 1.7 | 5.2 | 0.00 | 0.04 | 0.01 | 59 | 1015.3 |
| 20260905014530 | 64 | 121 | 2.6 | 5.2 | 0.00 | 0.04 | 0.01 | 59 | 1015.4 |
| 20260905014014 | 64 | 105 | 1.7 | 5.2 | 0.00 | 0.04 | 0.01 | 58 | 1015.3 |
| 20260905013514 | 65 | 106 | 0.9 | 2.6 | 0.00 | 0.04 | 0.01 | 57 | 1015.3 |
| 20260905013029 | 65 | 93 | 0.9 | 2.6 | 0.00 | 0.04 | 0.01 | 56 | 1015.2 |
| 20260905012518 | 66 | 79 | 0.9 | 2.6 | 0.00 | 0.04 | 0.01 | 56 | 1014.9 |
| 20260905012009 | 66 | 88 | 0.9 | 1.7 | 0.00 | 0.04 | 0.01 | 55 | 1014.7 |
| 20260905011520 | 65 | 82 | 0.0 | 4.3 | 0.00 | 0.04 | 0.01 | 55 | 1014.7 |
| 20260905011014 | 66 | 122 | 1.7 | 4.3 | 0.00 | 0.04 | 0.01 | 55 | 1014.7 |
| 20260905010513 | 66 | 109 | 0.9 | 6.1 | 0.00 | 0.04 | 0.01 | 56 | 1014.6 |
| 20260905010032 | 66 | 195 | 1.7 | 6.1 | 0.00 | 0.04 | 0.01 | 55 | 1014.5 |
| 20260905005513 | 67 | 121 | 1.7 | 5.2 | 0.00 | 0.04 | 0.01 | 54 | 1014.5 |
| 20260905005013 | 67 | 104 | 0.9 | 8.7 | 0.00 | 0.04 | 0.01 | 55 | 1014.5 |
| 20260905004505 | 67 | 92 | 1.7 | 8.7 | 0.00 | 0.04 | 0.01 | 53 | 1014.5 |
| 20260905004005 | 67 | 133 | 0.9 | 3.5 | 0.00 | 0.04 | 0.01 | 53 | 1014.5 |
| 20260905003508 | 67 | 167 | 0.9 | 3.5 | 0.00 | 0.04 | 0.01 | 57 | 1014.4 |
| 20260905003008 | 67 | 178 | 0.9 | 6.1 | 0.00 | 0.04 | 0.01 | 58 | 1014.4 |
| 20260905002508 | 67 | 213 | 1.7 | 7.0 | 0.00 | 0.04 | 0.01 | 56 | 1014.3 |
| 20260905002002 | 68 | 120 | 4.3 | 7.0 | 0.00 | 0.04 | 0.01 | 55 | 1014.3 |
| 20260905001503 | 68 | 114 | 0.9 | 4.3 | 0.00 | 0.04 | 0.01 | 50 | 1014.3 |
| 20260905001000 | 67 | 311 | 0.0 | 3.5 | 0.00 | 0.04 | 0.01 | 50 | 1014.2 |
| 20260905000501 | 68 | 352 | 0.9 | 3.5 | 0.00 | 0.04 | 0.01 | 49 | 1014.2 |
| 20260905000004 | 68 | 329 | 0.9 | 2.6 | 0.00 | 0.04 | 0.01 | 49 | 1014.2 |
| 20260904235503 | 68 | 350 | 0.9 | 3.5 | 0.00 | 0.04 | 0.01 | 48 | 1014.1 |
| 20260904235003 | 69 | 269 | 0.9 | 3.5 | 0.00 | 0.04 | 0.01 | 51 | 1014.2 |
| 20260904234507 | 69 | 345 | 0.9 | 3.5 | 0.00 | 0.04 | 0.01 | 47 | 1014.1 |
| 20260904234004 | 68 | 349 | 0.9 | 3.5 | 0.00 | 0.04 | 0.01 | 49 | 1014.2 |
| 20260904233505 | 68 | 270 | 0.9 | 5.2 | 0.00 | 0.04 | 0.01 | 47 | 1014.2 |
| 20260904233008 | 68 | 290 | 2.6 | 5.2 | 0.00 | 0.04 | 0.01 | 45 | 1014.2 |
| 20260904232508 | 68 | 273 | 1.7 | 3.5 | 0.00 | 0.04 | 0.01 | 49 | 1014.2 |
| 20260904232007 | 68 | 309 | 1.7 | 3.5 | 0.00 | 0.04 | 0.01 | 49 | 1014.2 |
| 20260904231513 | 68 | 321 | 0.9 | 3.5 | 0.00 | 0.04 | 0.01 | 52 | 1014.1 |
| 20260904231011 | 67 | 284 | 0.0 | 2.6 | 0.00 | 0.04 | 0.01 | 54 | 1014.1 |
| 20260904230502 | 67 | 252 | 0.9 | 2.6 | 0.00 | 0.04 | 0.01 | 54 | 1014.0 |
| 20260904230004 | 67 | 282 | 0.9 | 2.6 | 0.00 | 0.04 | 0.01 | 53 | 1014.0 |
| 20260904225502 | 68 | 280 | 1.7 | 7.0 | 0.00 | 0.04 | 0.01 | 54 | 1013.9 |
| 20260904225001 | 68 | 327 | 1.7 | 7.0 | 0.00 | 0.04 | 0.01 | 54 | 1013.9 |
| 20260904224504 | 68 | 9 | 1.7 | 5.2 | 0.00 | 0.04 | 0.01 | 55 | 1013.9 |
| 20260904224001 | 68 | 329 | 1.7 | 6.1 | 0.00 | 0.04 | 0.01 | 57 | 1013.9 |
| 20260904223505 | 68 | 315 | 2.6 | 6.1 | 0.00 | 0.04 | 0.01 | 56 | 1013.8 |
| 20260904223006 | 68 | 290 | 1.7 | 6.1 | 0.00 | 0.04 | 0.01 | 56 | 1013.9 |
| 20260904222504 | 68 | 288 | 2.6 | 6.1 | 0.00 | 0.04 | 0.01 | 57 | 1013.8 |
| 20260904222004 | 68 | 277 | 2.6 | 6.1 | 0.00 | 0.04 | 0.01 | 56 | 1013.8 |
| 20260904221510 | 69 | 279 | 0.9 | 5.2 | 0.00 | 0.04 | 0.01 | 56 | 1013.8 |
| 20260904221008 | 68 | 52 | 2.6 | 5.2 | 0.00 | 0.04 | 0.01 | 58 | 1013.8 |
| 20260904220509 | 67 | 287 | 1.7 | 5.2 | 0.00 | 0.04 | 0.01 | 58 | 1013.8 |
| 20260904220026 | 68 | 263 | 1.7 | 3.5 | 0.00 | 0.04 | 0.01 | 56 | 1013.7 |
| 20260904215511 | 68 | 329 | 0.9 | 3.5 | 0.00 | 0.04 | 0.01 | 59 | 1013.8 |
| 20260904215004 | 67 | 322 | 1.7 | 6.1 | 0.00 | 0.04 | 0.01 | 59 | 1013.8 |
| 20260904214504 | 67 | 267 | 2.6 | 6.1 | 0.00 | 0.04 | 0.01 | 61 | 1013.8 |
| 20260904214005 | 67 | 282 | 0.9 | 5.2 | 0.00 | 0.04 | 0.01 | 61 | 1013.8 |
| 20260904213506 | 66 | 280 | 1.7 | 5.2 | 0.00 | 0.04 | 0.01 | 61 | 1013.8 |
| 20260904213011 | 66 | 286 | 2.6 | 5.2 | 0.00 | 0.04 | 0.01 | 61 | 1013.7 |
| 20260904212506 | 66 | 271 | 1.7 | 5.2 | 0.00 | 0.04 | 0.01 | 61 | 1013.7 |
| 20260904212004 | 66 | 240 | 0.9 | 5.2 | 0.00 | 0.04 | 0.01 | 62 | 1013.7 |
| 20260904211508 | 66 | 294 | 1.7 | 6.1 | 0.00 | 0.04 | 0.01 | 62 | 1013.6 |
| 20260904211008 | 66 | 309 | 1.7 | 6.1 | 0.00 | 0.04 | 0.01 | 64 | 1013.6 |
| 20260904210512 | 65 | 275 | 1.7 | 6.1 | 0.00 | 0.04 | 0.01 | 64 | 1013.6 |
| 20260904210019 | 65 | 323 | 1.7 | 7.0 | 0.00 | 0.04 | 0.01 | 63 | 1013.7 |
| 20260904205510 | 64 | 259 | 3.5 | 7.0 | 0.00 | 0.04 | 0.01 | 63 | 1013.6 |
| 20260904205010 | 65 | 304 | 1.7 | 7.0 | 0.00 | 0.04 | 0.01 | 63 | 1013.7 |
| 20260904204521 | 65 | 288 | 3.5 | 7.0 | 0.00 | 0.04 | 0.01 | 64 | 1013.7 |
| 20260904204012 | 65 | 295 | 0.9 | 5.2 | 0.00 | 0.04 | 0.01 | 66 | 1013.7 |
| 20260904203507 | 64 | 277 | 2.6 | 5.2 | 0.00 | 0.04 | 0.01 | 66 | 1013.8 |
| 20260904203006 | 65 | 320 | 2.6 | 5.2 | 0.00 | 0.04 | 0.01 | 65 | 1013.8 |
| 20260904202504 | 64 | 248 | 0.9 | 6.1 | 0.00 | 0.04 | 0.01 | 68 | 1013.9 |
| 20260904202006 | 64 | 274 | 2.6 | 6.1 | 0.00 | 0.04 | 0.01 | 68 | 1013.8 |
| 20260904201509 | 63 | 209 | 0.9 | 5.2 | 0.00 | 0.04 | 0.01 | 68 | 1013.9 |
| 20260904201011 | 63 | 283 | 1.7 | 5.2 | 0.00 | 0.04 | 0.01 | 68 | 1013.8 |
| 20260904200509 | 63 | 263 | 2.6 | 3.5 | 0.00 | 0.04 | 0.01 | 68 | 1014.0 |
| 20260904200018 | 63 | 267 | 1.7 | 5.2 | 0.00 | 0.04 | 0.01 | 69 | 1014.0 |
| 20260904195509 | 62 | 324 | 1.7 | 5.2 | 0.00 | 0.04 | 0.01 | 69 | 1014.0 |
| 20260904195009 | 63 | 286 | 2.6 | 6.1 | 0.00 | 0.04 | 0.01 | 69 | 1014.0 |
| 20260904194541 | 63 | 321 | 2.6 | 6.1 | 0.00 | 0.04 | 0.01 | 69 | 1013.9 |
| 20260904194012 | 63 | 268 | 2.6 | 6.1 | 0.00 | 0.04 | 0.01 | 70 | 1013.9 |
| 20260904193517 | 63 | 156 | 0.9 | 7.0 | 0.00 | 0.04 | 0.01 | 72 | 1013.8 |
| 20260904193027 | 63 | 288 | 2.6 | 7.0 | 0.00 | 0.04 | 0.01 | 72 | 1013.9 |
| 20260904192516 | 63 | 298 | 2.6 | 6.1 | 0.00 | 0.04 | 0.01 | 71 | 1013.9 |
| 20260904192005 | 63 | 290 | 1.7 | 6.1 | 0.00 | 0.04 | 0.01 | 75 | 1013.9 |
| 20260904191504 | 62 | 342 | 1.7 | 5.2 | 0.00 | 0.04 | 0.01 | 74 | 1014.0 |
| 20260904191005 | 62 | 325 | 0.9 | 6.1 | 0.00 | 0.04 | 0.01 | 76 | 1014.0 |
| 20260904190508 | 61 | 286 | 1.7 | 6.1 | 0.00 | 0.04 | 0.01 | 76 | 1014.0 |
| 20260904190008 | 62 | 271 | 2.6 | 5.2 | 0.00 | 0.04 | 0.01 | 74 | 1014.0 |
| 20260904185512 | 62 | 286 | 0.9 | 2.6 | 0.00 | 0.04 | 0.01 | 75 | 1014.0 |
| 20260904185011 | 62 | 288 | 0.9 | 5.2 | 0.00 | 0.04 | 0.01 | 78 | 1014.0 |
| 20260904184518 | 61 | 287 | 1.7 | 5.2 | 0.00 | 0.04 | 0.01 | 78 | 1014.1 |
| 20260904184012 | 62 | 301 | 1.7 | 3.5 | 0.00 | 0.04 | 0.01 | 77 | 1014.0 |
| 20260904183514 | 60 | 281 | 1.7 | 3.5 | 0.00 | 0.04 | 0.01 | 79 | 1014.0 |
| 20260904183023 | 60 | 337 | 1.7 | 2.6 | 0.00 | 0.04 | 0.01 | 78 | 1014.0 |
| 20260904182515 | 62 | 350 | 0.9 | 3.5 | 0.00 | 0.04 | 0.01 | 78 | 1014.0 |
| 20260904182016 | 61 | 5 | 1.7 | 3.5 | 0.00 | 0.04 | 0.01 | 77 | 1013.9 |
| 20260904181526 | 60 | 185 | 0.0 | 1.7 | 0.00 | 0.04 | 0.01 | 79 | 1013.9 |
| 20260904181017 | 60 | 292 | 0.9 | 2.6 | 0.00 | 0.04 | 0.01 | 79 | 1014.0 |
| 20260904180503 | 60 | 273 | 0.9 | 2.6 | 0.00 | 0.04 | 0.01 | 79 | 1014.0 |
| 20260904180007 | 60 | 288 | 0.9 | 2.6 | 0.00 | 0.04 | 0.01 | 80 | 1014.0 |
| 20260904175508 | 60 | 142 | 0.9 | 2.6 | 0.00 | 0.04 | 0.01 | 80 | 1014.0 |
| 20260904175008 | 59 | 239 | 0.9 | 3.5 | 0.00 | 0.04 | 0.01 | 83 | 1014.1 |
| 20260904174519 | 59 | 19 | 1.7 | 3.5 | 0.00 | 0.04 | 0.01 | 82 | 1014.1 |
| 20260904174010 | 59 | 229 | 1.7 | 3.5 | 0.00 | 0.04 | 0.01 | 83 | 1014.1 |
| 20260904173511 | 58 | 277 | 1.7 | 2.6 | 0.00 | 0.04 | 0.01 | 85 | 1014.1 |
| 20260904173018 | 57 | 284 | 1.7 | 2.6 | 0.00 | 0.04 | 0.01 | 86 | 1014.1 |
| 20260904172512 | 57 | 170 | 0.0 | 2.6 | 0.00 | 0.04 | 0.01 | 88 | 1014.1 |
| 20260904172014 | 57 | 277 | 0.9 | 1.7 | 0.00 | 0.04 | 0.01 | 87 | 1014.1 |
| 20260904171523 | 57 | 151 | 0.0 | 1.7 | 0.00 | 0.04 | 0.01 | 88 | 1014.1 |
| 20260904171015 | 56 | 287 | 0.0 | 2.6 | 0.00 | 0.04 | 0.01 | 88 | 1014.0 |
| 20260904170519 | 56 | 279 | 0.9 | 3.5 | 0.00 | 0.04 | 0.01 | 88 | 1014.1 |
| 20260904170031 | 56 | 261 | 0.9 | 3.5 | 0.00 | 0.04 | 0.01 | 87 | 1014.1 |
| 20260904165516 | 57 | 272 | 0.0 | 1.7 | 0.00 | 0.04 | 0.01 | 88 | 1014.1 |
| 20260904165008 | 57 | 269 | 0.0 | 1.7 | 0.00 | 0.04 | 0.01 | 88 | 1014.1 |
| 20260904164511 | 57 | 229 | 0.0 | 2.6 | 0.00 | 0.04 | 0.01 | 89 | 1013.9 |
| 20260904164007 | 57 | 293 | 1.7 | 3.5 | 0.00 | 0.04 | 0.01 | 88 | 1013.9 |
| 20260904163507 | 57 | 296 | 1.7 | 3.5 | 0.00 | 0.04 | 0.01 | 88 | 1014.0 |
| 20260904163014 | 57 | 295 | 0.9 | 2.6 | 0.00 | 0.04 | 0.01 | 87 | 1014.0 |
| 20260904162512 | 57 | 274 | 0.9 | 1.7 | 0.00 | 0.04 | 0.01 | 87 | 1013.9 |
| 20260904162011 | 58 | 307 | 0.9 | 1.7 | 0.00 | 0.04 | 0.01 | 85 | 1013.9 |
| 20260904161524 | 58 | 29 | 0.0 | 0.0 | 0.00 | 0.04 | 0.01 | 87 | 1013.9 |
| 20260904161014 | 57 | 24 | 0.0 | 0.0 | 0.00 | 0.04 | 0.01 | 86 | 1013.8 |
| 20260904160514 | 57 | 100 | 0.0 | 0.0 | 0.00 | 0.04 | 0.01 | 87 | 1013.7 |
| 20260904160029 | 57 | 75 | 0.0 | 0.0 | 0.00 | 0.04 | 0.01 | 87 | 1013.7 |
| 20260904155515 | 57 | 65 | 0.0 | 0.0 | 0.00 | 0.04 | 0.01 | 87 | 1013.7 |
| 20260904155015 | 56 | 342 | 0.0 | 0.0 | 0.00 | 0.04 | 0.01 | 88 | 1013.7 |
| 20260904154507 | 56 | 352 | 0.0 | 0.0 | 0.00 | 0.04 | 0.01 | 89 | 1013.6 |
| 20260904154007 | 56 | 352 | 0.0 | 0.0 | 0.00 | 0.04 | 0.01 | 88 | 1013.6 |
| 20260904153508 | 56 | 352 | 0.0 | 0.0 | 0.00 | 0.04 | 0.01 | 89 | 1013.5 |
| 20260904153018 | 56 | 352 | 0.0 | 0.0 | 0.00 | 0.04 | 0.01 | 91 | 1013.4 |
| 20260904152511 | 56 | 280 | 0.0 | 0.0 | 0.00 | 0.04 | 0.01 | 92 | 1013.4 |
| 20260904152011 | 55 | 280 | 0.0 | 0.0 | 0.00 | 0.04 | 0.01 | 93 | 1013.3 |
| 20260904151504 | 55 | 280 | 0.0 | 0.0 | 0.00 | 0.04 | 0.01 | 93 | 1013.2 |
| 20260904151001 | 54 | 280 | 0.0 | 0.0 | 0.00 | 0.04 | 0.01 | 93 | 1013.2 |
| 20260904150504 | 54 | 280 | 0.0 | 0.0 | 0.00 | 0.04 | 0.01 | 93 | 1013.1 |
| 20260904150009 | 54 | 280 | 0.0 | 0.0 | 0.00 | 0.04 | 0.01 | 93 | 1013.1 |
| 20260904145504 | 54 | 280 | 0.0 | 0.0 | 0.00 | 0.04 | 0.01 | 94 | 1013.0 |
| 20260904145005 | 54 | 280 | 0.0 | 0.0 | 0.00 | 0.04 | 0.01 | 93 | 1013.0 |
| 20260904144508 | 54 | 280 | 0.0 | 0.0 | 0.00 | 0.04 | 0.01 | 93 | 1013.0 |
| 20260904144009 | 53 | 280 | 0.0 | 0.0 | 0.00 | 0.04 | 0.01 | 93 | 1012.9 |
| 20260904143506 | 53 | 280 | 0.0 | 0.0 | 0.00 | 0.04 | 0.01 | 94 | 1012.9 |
| 20260904143011 | 53 | 280 | 0.0 | 0.0 | 0.00 | 0.04 | 0.01 | 94 | 1012.9 |
| 20260904142507 | 53 | 280 | 0.0 | 0.0 | 0.00 | 0.04 | 0.01 | 94 | 1012.9 |
| 20260904142010 | 53 | 280 | 0.0 | 0.0 | 0.00 | 0.04 | 0.01 | 94 | 1012.8 |
| 20260904141519 | 53 | 280 | 0.0 | 0.0 | 0.00 | 0.04 | 0.01 | 94 | 1012.8 |
| 20260904141012 | 53 | 280 | 0.0 | 0.0 | 0.00 | 0.05 | 0.01 | 94 | 1012.7 |
| 20260904140512 | 52 | 280 | 0.0 | 0.0 | 0.00 | 0.05 | 0.01 | 94 | 1012.6 |
| 20260904140004 | 52 | 280 | 0.0 | 0.0 | 0.00 | 0.05 | 0.01 | 94 | 1012.5 |
| 20260904135504 | 52 | 280 | 0.0 | 0.0 | 0.00 | 0.05 | 0.01 | 93 | 1012.4 |
| 20260904135007 | 52 | 280 | 0.0 | 0.0 | 0.00 | 0.05 | 0.01 | 94 | 1012.4 |
| 20260904134503 | 52 | 280 | 0.0 | 0.0 | 0.00 | 0.05 | 0.01 | 94 | 1012.3 |
| 20260904134007 | 52 | 280 | 0.0 | 0.0 | 0.00 | 0.05 | 0.01 | 94 | 1012.3 |
| 20260904133504 | 52 | 280 | 0.0 | 0.0 | 0.00 | 0.05 | 0.01 | 94 | 1012.2 |
| 20260904133008 | 52 | 280 | 0.0 | 0.0 | 0.00 | 0.06 | 0.01 | 93 | 1012.2 |
| 20260904132509 | 52 | 280 | 0.0 | 0.0 | 0.00 | 0.06 | 0.01 | 94 | 1012.2 |
| 20260904132008 | 52 | 280 | 0.0 | 0.0 | 0.00 | 0.06 | 0.01 | 93 | 1012.2 |
| 20260904131515 | 52 | 280 | 0.0 | 0.0 | 0.00 | 0.06 | 0.01 | 93 | 1012.1 |
| 20260904131011 | 52 | 280 | 0.0 | 0.0 | 0.00 | 0.06 | 0.01 | 93 | 1012.0 |
| 20260904130516 | 52 | 280 | 0.0 | 0.0 | 0.00 | 0.07 | 0.01 | 93 | 1012.0 |
| 20260904130023 | 52 | 280 | 0.0 | 0.0 | 0.00 | 0.07 | 0.01 | 93 | 1012.0 |
| 20260904125512 | 52 | 280 | 0.0 | 0.0 | 0.00 | 0.08 | 0.01 | 93 | 1011.9 |
| 20260904125017 | 52 | 280 | 0.0 | 0.0 | 0.00 | 0.08 | 0.01 | 93 | 1012.0 |
| 20260904124504 | 52 | 280 | 0.0 | 0.0 | 0.00 | 0.09 | 0.01 | 94 | 1012.0 |
| 20260904124004 | 52 | 279 | 0.0 | 0.0 | 0.00 | 0.09 | 0.01 | 93 | 1011.9 |
| 20260904123503 | 52 | 279 | 0.0 | 0.0 | 0.00 | 0.09 | 0.01 | 93 | 1011.8 |
| 20260904123006 | 52 | 279 | 0.0 | 0.0 | 0.00 | 0.09 | 0.01 | 93 | 1011.9 |
| 20260904122505 | 52 | 280 | 0.0 | 0.0 | 0.00 | 0.09 | 0.01 | 93 | 1011.7 |
| 20260904122008 | 52 | 279 | 0.0 | 0.0 | 0.00 | 0.10 | 0.01 | 93 | 1011.7 |
| 20260904121512 | 52 | 280 | 0.0 | 0.0 | 0.00 | 0.11 | 0.01 | 93 | 1011.7 |
| 20260904121008 | 52 | 280 | 0.0 | 0.0 | 0.00 | 0.12 | 0.01 | 93 | 1011.7 |
| 20260904120511 | 52 | 280 | 0.0 | 0.0 | 0.00 | 0.12 | 0.01 | 93 | 1011.7 |
| 20260904120025 | 52 | 280 | 0.0 | 0.0 | 0.00 | 0.14 | 0.01 | 93 | 1011.7 |
| 20260904115511 | 52 | 280 | 0.0 | 0.0 | 0.00 | 0.14 | 0.01 | 93 | 1011.5 |
| 20260904115010 | 52 | 280 | 0.0 | 0.0 | 0.00 | 0.14 | 0.01 | 93 | 1011.5 |
| 20260904114526 | 52 | 279 | 0.0 | 0.0 | 0.00 | 0.14 | 0.01 | 93 | 1011.5 |
| 20260904114013 | 52 | 279 | 0.0 | 0.0 | 0.00 | 0.14 | 0.01 | 93 | 1011.5 |
| 20260904113514 | 52 | 280 | 0.0 | 0.0 | 0.00 | 0.14 | 0.01 | 93 | 1011.5 |
| 20260904113013 | 52 | 280 | 0.0 | 0.0 | 0.00 | 0.14 | 0.01 | 93 | 1011.5 |
| 20260904112504 | 52 | 280 | 0.0 | 0.0 | 0.00 | 0.14 | 0.01 | 93 | 1011.4 |
| 20260904112004 | 52 | 279 | 0.0 | 0.0 | 0.00 | 0.14 | 0.01 | 93 | 1011.4 |
| 20260904111507 | 52 | 280 | 0.0 | 0.0 | 0.00 | 0.14 | 0.01 | 93 | 1011.5 |
| 20260904111010 | 52 | 280 | 0.0 | 0.0 | 0.00 | 0.14 | 0.01 | 93 | 1011.5 |
| 20260904110508 | 53 | 279 | 0.0 | 0.0 | 0.00 | 0.14 | 0.01 | 93 | 1011.4 |
| 20260904110030 | 52 | 280 | 0.0 | 0.0 | 0.00 | 0.14 | 0.01 | 93 | 1011.3 |
| 20260904105512 | 53 | 279 | 0.0 | 0.0 | 0.00 | 0.14 | 0.01 | 93 | 1011.3 |
| 20260904105012 | 53 | 279 | 0.0 | 0.0 | 0.00 | 0.14 | 0.01 | 93 | 1011.2 |
| 20260904104523 | 53 | 280 | 0.0 | 0.0 | 0.00 | 0.14 | 0.01 | 93 | 1011.3 |
| 20260904104012 | 53 | 279 | 0.0 | 0.0 | 0.00 | 0.14 | 0.01 | 93 | 1011.3 |
| 20260904103513 | 53 | 280 | 0.0 | 0.0 | 0.00 | 0.14 | 0.01 | 93 | 1011.2 |
| 20260904103027 | 53 | 279 | 0.0 | 0.0 | 0.00 | 0.14 | 0.01 | 93 | 1011.3 |
| 20260904102516 | 53 | 279 | 0.0 | 0.0 | 0.00 | 0.14 | 0.01 | 92 | 1011.2 |
| 20260904102014 | 53 | 279 | 0.0 | 0.0 | 0.00 | 0.14 | 0.01 | 92 | 1011.2 |
| 20260904101508 | 53 | 279 | 0.0 | 0.0 | 0.00 | 0.14 | 0.01 | 92 | 1011.2 |
| 20260904101007 | 53 | 301 | 0.0 | 0.0 | 0.00 | 0.14 | 0.01 | 92 | 1011.1 |
| 20260904100510 | 53 | 315 | 0.0 | 0.0 | 0.00 | 0.14 | 0.01 | 92 | 1011.1 |
| 20260904100012 | 53 | 315 | 0.0 | 0.0 | 0.00 | 0.14 | 0.01 | 93 | 1011.1 |
| 20260904095508 | 53 | 315 | 0.0 | 0.0 | 0.00 | 0.14 | 0.01 | 92 | 1011.1 |
| 20260904095010 | 53 | 315 | 0.0 | 0.0 | 0.00 | 0.14 | 0.01 | 93 | 1011.1 |
| 20260904094520 | 53 | 316 | 0.0 | 0.0 | 0.00 | 0.14 | 0.01 | 93 | 1011.1 |